Location: Katzenstein
(51.7484°N, 10.2155°E)
Time: 02:55:56
(UTC+00:00)

Cosmos 1802 Rocket - Pass Details

Date: 17 February 2020
Orbit: 954 x 1011 km, 82.9° (Epoch: 05 April)

Event Time Altitude Azimuth Distance (km) Brightness Sun altitude
Rises 05:23:59 0° 347° (NNW) 3,752 6.9 -10.9°
Reaches altitude 10° 05:26:34 10° 344° (NNW) 2,801 6.2 -10.5°
Maximum altitude 05:32:50 57° 268° (W) 1,184 4.2 -9.6°
Drops below altitude 10° 05:39:05 10° 191° (SSW) 2,784 6.4 -8.6°
Sets 05:41:38 0° 188° (S) 3,726 7.1 -8.2°
